SBI5650 UNNT-UNKL

Flight info

Callsign SBI5650
Flight time N/A
Altitude 33000
Route OGATI1A OGATI A308 RISPA A366 KESED A309 ROTLI A300 RANET RANET2T
Aircraft B738/M-SDE2E3FGHIRWXY/LB1

Departure

Time 2026-05-01 14:52
Airport Novosibirsk Tolmachevo Airport (UNNT)

Arrival

Time N/A
Airport Krasnoyarsk International Airport (UNKL)
Time Latitude Longitude Altitude Speed Heading
2026-05-01 14:10 55.00994 82.65994 372 ft 0 kts 171°
2026-05-01 14:43 55.00973 82.65998 372 ft 6 kts 177°
2026-05-01 14:43 55.00943 82.65945 372 ft 7 kts 259°
2026-05-01 14:43 55.00935 82.65865 372 ft 7 kts 261°
2026-05-01 14:44 55.00927 82.65775 372 ft 9 kts 261°
2026-05-01 14:44 55.00901 82.65471 372 ft 13 kts 262°
2026-05-01 14:44 55.00887 82.65313 372 ft 13 kts 261°
2026-05-01 14:45 55.00881 82.65159 372 ft 13 kts 264°
2026-05-01 14:45 55.00889 82.64865 372 ft 12 kts 282°
2026-05-01 14:45 55.00907 82.64725 372 ft 12 kts 282°
2026-05-01 14:46 55.00925 82.64589 372 ft 11 kts 283°
2026-05-01 14:46 55.00959 82.64328 372 ft 11 kts 282°
2026-05-01 14:46 55.00975 82.64203 373 ft 10 kts 282°
2026-05-01 14:47 55.00987 82.64113 373 ft 0 kts 283°
2026-05-01 14:47 55.00988 82.64109 373 ft 1 kts 283°
2026-05-01 14:48 55.01022 82.64012 373 ft 0 kts 342°
2026-05-01 14:49 55.01029 82.64009 373 ft 4 kts 342°
2026-05-01 14:49 55.01150 82.64048 374 ft 12 kts 72°
2026-05-01 14:50 55.01152 82.64069 374 ft 0 kts 79°
2026-05-01 14:50 55.01156 82.64101 374 ft 18 kts 79°
2026-05-01 14:51 55.01216 82.64758 372 ft 90 kts 81°
2026-05-01 14:51 55.01501 82.68155 673 ft 167 kts 84°
2026-05-01 14:52 55.01791 82.72209 2087 ft 171 kts 77°
2026-05-01 14:52 55.02047 82.74359 2458 ft 195 kts 81°
2026-05-01 14:52 55.02555 82.79579 2922 ft 237 kts 82°
2026-05-01 14:53 55.02815 82.82498 3409 ft 249 kts 82°
2026-05-01 14:53 55.02978 82.85508 4147 ft 251 kts 98°
2026-05-01 14:53 55.02314 82.88303 4747 ft 259 kts 128°
2026-05-01 14:53 55.01319 82.90977 5306 ft 270 kts 108°
2026-05-01 14:54 55.00990 82.94204 6078 ft 273 kts 99°
2026-05-01 14:54 55.00677 82.97484 6865 ft 276 kts 101°
2026-05-01 14:54 55.00293 83.00795 7617 ft 281 kts 103°
2026-05-01 14:54 54.99861 83.04132 8389 ft 285 kts 103°
2026-05-01 14:55 54.99396 83.07508 9150 ft 289 kts 104°
2026-05-01 14:55 54.98909 83.10924 9938 ft 292 kts 104°
2026-05-01 14:55 54.98404 83.14381 10727 ft 296 kts 105°
2026-05-01 14:55 54.97888 83.17871 11502 ft 300 kts 105°
2026-05-01 14:56 54.97359 83.21425 12233 ft 306 kts 105°
2026-05-01 14:56 54.96872 83.25065 12962 ft 312 kts 100°
2026-05-01 14:56 54.96556 83.28826 13757 ft 316 kts 97°
2026-05-01 14:56 54.96297 83.32639 14555 ft 319 kts 97°
2026-05-01 14:57 54.96044 83.36502 15330 ft 324 kts 97°
2026-05-01 14:57 54.95507 83.44380 16850 ft 332 kts 97°
2026-05-01 14:57 54.95221 83.48387 17597 ft 336 kts 98°
2026-05-01 14:58 54.94926 83.52437 18319 ft 340 kts 98°
2026-05-01 14:58 54.94627 83.56485 19003 ft 344 kts 98°
2026-05-01 14:58 54.94317 83.60622 19703 ft 347 kts 98°
2026-05-01 14:58 54.94001 83.64812 20364 ft 351 kts 98°
2026-05-01 14:59 54.93680 83.69046 21020 ft 355 kts 98°
2026-05-01 14:59 54.93352 83.73322 21642 ft 359 kts 98°
2026-05-01 14:59 54.93018 83.77653 22264 ft 363 kts 98°
2026-05-01 14:59 54.92681 83.82016 22867 ft 366 kts 98°
2026-05-01 15:00 54.91990 83.90879 24028 ft 373 kts 98°
2026-05-01 15:00 54.91638 83.95371 24563 ft 377 kts 98°
2026-05-01 15:00 54.91280 83.99905 25112 ft 380 kts 98°
2026-05-01 15:01 54.90919 84.04474 25663 ft 383 kts 97°
2026-05-01 15:01 54.90554 84.09072 26187 ft 386 kts 97°
2026-05-01 15:01 54.90178 84.13760 26708 ft 388 kts 97°
2026-05-01 15:01 54.89804 84.18426 27205 ft 391 kts 97°
2026-05-01 15:02 54.89424 84.23121 27683 ft 394 kts 97°
2026-05-01 15:02 54.89170 84.26256 27976 ft 396 kts 97°
2026-05-01 15:02 54.88651 84.32619 28573 ft 400 kts 97°
2026-05-01 15:02 54.88259 84.37413 29026 ft 402 kts 97°
2026-05-01 15:03 54.87863 84.42226 29454 ft 404 kts 97°
2026-05-01 15:03 54.87467 84.47015 29861 ft 407 kts 98°
2026-05-01 15:03 54.87056 84.51957 30261 ft 409 kts 98°
2026-05-01 15:03 54.86646 84.56860 30652 ft 412 kts 98°
2026-05-01 15:04 54.86238 84.61723 31025 ft 414 kts 98°
2026-05-01 15:04 54.85819 84.66672 31389 ft 416 kts 97°
2026-05-01 15:04 54.85476 84.71709 31521 ft 425 kts 95°
2026-05-01 15:05 54.84964 84.82144 31683 ft 443 kts 94°
2026-05-01 15:05 54.84412 84.92987 31826 ft 459 kts 95°
2026-05-01 15:06 54.83797 85.04171 32035 ft 471 kts 95°
2026-05-01 15:06 54.83487 85.09845 32264 ft 474 kts 95°
2026-05-01 15:06 54.83175 85.15526 32645 ft 472 kts 95°
2026-05-01 15:06 54.82871 85.21183 33012 ft 471 kts 93°
2026-05-01 15:07 54.83086 85.26855 33011 ft 473 kts 75°
2026-05-01 15:07 54.84255 85.32149 33034 ft 470 kts 59°
2026-05-01 15:07 54.86182 85.36665 33038 ft 464 kts 44°
2026-05-01 15:08 54.90705 85.44571 33046 ft 461 kts 43°
2026-05-01 15:08 54.95050 85.52735 33037 ft 462 kts 54°
2026-05-01 15:08 54.96571 85.57662 33049 ft 464 kts 68°
2026-05-01 15:09 54.97431 85.63070 33046 ft 466 kts 81°
2026-05-01 15:09 54.97595 85.68702 33056 ft 467 kts 92°
2026-05-01 15:09 54.97340 85.74346 33057 ft 468 kts 95°
2026-05-01 15:10 54.96590 85.85617 33037 ft 469 kts 96°
2026-05-01 15:10 54.95380 86.02543 33044 ft 471 kts 96°
2026-05-01 15:11 54.94141 86.19495 33049 ft 472 kts 96°
2026-05-01 15:12 54.93310 86.30819 33038 ft 473 kts 96°
2026-05-01 15:12 54.92075 86.47822 33048 ft 472 kts 96°
2026-05-01 15:13 54.91814 86.64745 33049 ft 467 kts 68°
2026-05-01 15:14 54.95604 86.73589 33061 ft 459 kts 41°
2026-05-01 15:14 55.02361 86.85435 33042 ft 461 kts 47°
2026-05-01 15:15 55.10341 87.02995 33052 ft 462 kts 51°
2026-05-01 15:16 55.18075 87.20863 33056 ft 463 kts 51°
2026-05-01 15:18 55.27810 87.43380 33056 ft 462 kts 51°
2026-05-01 15:19 55.35522 87.61357 33058 ft 462 kts 51°
2026-05-01 15:19 55.41304 87.74925 33056 ft 462 kts 51°
2026-05-01 15:20 55.47079 87.88553 33057 ft 463 kts 51°
2026-05-01 15:21 55.50918 87.97655 33059 ft 463 kts 51°
2026-05-01 15:21 55.54135 88.05305 33057 ft 463 kts 51°
2026-05-01 15:22 55.59879 88.19029 33050 ft 463 kts 51°
2026-05-01 15:22 55.63698 88.28198 33053 ft 462 kts 51°
2026-05-01 15:23 55.67504 88.37365 33056 ft 462 kts 51°
2026-05-01 15:23 55.71306 88.46559 33056 ft 462 kts 51°
2026-05-01 15:24 55.75092 88.55746 33056 ft 462 kts 51°
2026-05-01 15:24 55.78882 88.64978 33056 ft 462 kts 51°
2026-05-01 15:25 55.82662 88.74223 33068 ft 462 kts 51°
2026-05-01 15:25 55.86422 88.83457 33063 ft 462 kts 51°
2026-05-01 15:26 55.90159 88.92666 33060 ft 462 kts 51°
2026-05-01 15:26 55.93907 89.01945 33063 ft 461 kts 52°
2026-05-01 15:27 55.96809 89.12178 33073 ft 465 kts 67°
2026-05-01 15:28 56.00150 89.28464 33075 ft 466 kts 68°
2026-05-01 15:28 56.02384 89.39289 33058 ft 457 kts 67°
2026-05-01 15:29 56.04563 89.49749 33067 ft 445 kts 67°
2026-05-01 15:29 56.05634 89.54873 33075 ft 446 kts 67°
2026-05-01 15:30 56.09704 89.74457 33075 ft 450 kts 67°
2026-05-01 15:31 56.14063 89.95681 33069 ft 472 kts 68°
2026-05-01 15:31 56.16314 90.06741 33067 ft 472 kts 68°
2026-05-01 15:32 56.20780 90.28866 32558 ft 475 kts 68°
2026-05-01 15:33 56.24112 90.45527 30317 ft 472 kts 68°
2026-05-01 15:34 56.27166 90.62252 28219 ft 465 kts 77°